Temperature
12 12 13 13 13 13 13 13 13 13 13 13 13 13 13 14 14 14 14 14 14 14 14 15 15 15 14 15 15 15 15 14 14 14 14 14 14 14 14 14 14 14 14
13 12 12 12 12 13 13 13 13 13 13 13 13 13 13 13 13 14 14 14 14 14 14 14 14 14 14 14 14 14 14 14 14 14 14 14 14 14 14 14 14 14 14
12 12 12 12 12 13 13 13 13 13 13 13 13 13 13 13 13 13 13 14 14 14 14 14 14 14 14 14 14 14 14 14 14 14 14 14 14 14 14 14 14 14 14
12 12 12 12 12 12 12 13 13 13 13 13 13 13 13 13 13 13 13 13 14 14 14 14 14 14 14 14 14 14 14 14 14 14 13 13 14 13 13 14 14 14 14
12 12 12 12 12 12 12 12 13 13 13 13 13 13 13 13 13 13 13 13 13 13 13 14 14 14 13 13 13 13 13 13 13 13 13 13 13 13 13 13 14 14 14
12 12 12 12 12 12 12 12 12 12 12 12 12 13 13 13 13 13 13 13 13 13 13 13 13 13 13 13 13 13 13 13 13 13 13 13 13 13 13 13 13 13 13
12 11 11 11 11 11 11 12 12 12 12 12 12 12 12 13 13 13 13 13 13 13 13 13 13 13 13 13 13 13 13 13 13 13 13 13 13 13 13 13 13 13 13
11 11 11 11 11 11 11 11 11 12 12 12 12 12 12 12 12 13 13 12 12 12 12 12 12 13 13 13 13 13 13 13 13 12 13 13 12 13 13 13 13 13 13
11 11 11 11 11 11 11 11 11 11 11 12 12 12 12 12 12 12 12 12 12 12 12 12 12 12 12 12 12 12 12 12 12 12 12 12 12 12 12 12 12 12 12
10 10 10 11 11 11 11 11 11 11 11 11 11 11 12 12 12 12 12 12 12 12 12 12 12 12 12 12 12 12 12 12 12 12 12 12 12 12 12 12 12 12 12
10 10 10 10 10 10 10 10 11 11 11 11 11 11 11 11 11 11 11 12 12 12 12 12 12 12 12 12 11 12 12 12 12 12 12 11 11 11 11 11 12 12 12
9 10 10 10 10 10 10 10 10 10 10 10 10 10 11 11 11 11 11 11 11 11 11 11 11 11 11 11 11 11 11 11 11 12 11 11 11 11 11 11 11 11 11
9 9 9 9 9 10 10 10 10 10 10 10 10 10 10 10 10 11 11 11 11 11 11 11 11 11 11 11 11 11 11 11 11 11 11 11 11 11 11 11 11 11 11
9 9 9 9 9 9 9 9 9 9 9 9 10 10 10 10 10 10 10 10 10 10 10 10 10 10 10 10 10 11 11 11 11 11 11 11 10 10 10 10 10 10 11
8 8 8 8 9 9 9 9 9 9 9 9 9 9 9 9 9 9 9 10 10 10 10 10 10 10 10 10 10 10 10 10 10 10 10 10 10 10 10 10 10 10 10
8 8 8 8 8 8 8 8 8 8 8 8 9 9 9 9 9 9 9 9 9 9 9 10 10 10 10 10 9 9 10 10 10 10 10 10 10 10 10 10 10 10 10
8 8 8 8 8 8 8 8 8 8 8 8 8 8 8 8 8 8 8 9 9 9 9 9 9 9 9 9 9 9 9 9 9 9 9 9 9 9 9 9 9 9 9
7 7 7 7 7 7 7 7 7 7 7 7 7 7 7 7 8 8 8 8 8 8 8 9 9 9 9 9 9 9 9 9 9 9 9 9 9 9 9 9 9 9 9
7 7 7 7 7 7 7 7 7 7 7 7 7 7 7 7 7 7 7 7 7 8 8 8 8 8 8 8 8 8 8 8 8 8 8 8 8 8 8 8 8 9 9
6 6 6 6 6 6 6 6 6 6 6 6 6 6 6 6 6 7 7 7 7 7 7 7 7 7 7 7 8 7 7 7 7 7 7 7 7 8 8 8 8 8 8
6 6 6 6 6 6 6 6 6 6 6 6 6 6 6 6 6 6 6 6 6 6 6 6 7 7 7 7 7 7 7 7 7 7 7 7 7 7 7 7 7 8 8
6 5 5 5 5 5 5 5 5 5 5 5 5 5 5 5 5 5 5 6 6 6 6 6 6 6 6 6 6 6 5 6 6 6 6 6 6 7 7 7 7 7 7
5 5 5 5 5 5 4 4 4 4 4 5 5 5 5 5 5 5 5 5 5 5 5 5 5 5 5 5 5 5 5 5 5 6 6 6 6 6 6 6 6 6 7
5 4 4 4 4 4 4 4 4 4 4 4 4 4 4 4 4 4 4 4 4 4 5 5 5 5 5 5 5 5 4 4 4 4 5 5 5 6 6 6 6 6 6
4 4 4 4 3 3 3 3 3 4 4 4 4 4 4 4 4 3 4 4 4 4 4 4 4 4 4 4 4 4 4 4 4 3 4 4 5 5 5 5 5 5 5
4 3 3 3 3 3 3 3 3 3 3 3 3 3 3 3 3 3 3 3 3 3 3 3 4 4 4 4 4 4 3 3 3 3 3 3 4 5 5 5 5 5 5
Wind_Speed
1 2 3 6 8 9 9 10 11 11 11 12 12 13 13 13 14 14 13 13 13 13 13 14 14 14 15 16 16 16 15 15 16 16 15 15 15 15 15 15 14 14 16
3 3 4 7 8 9 10 10 11 11 11 11 11 12 13 13 13 13 13 13 13 13 13 13 13 14 14 15 15 15 15 15 15 15 14 14 14 14 15 15 14 13 16
4 4 5 7 9 10 10 11 11 11 11 11 11 11 12 12 12 13 13 13 12 12 13 12 12 13 13 14 14 13 14 14 14 14 13 12 12 14 15 15 15 16 16
6 5 5 8 9 10 10 11 11 11 10 10 11 11 12 12 12 13 13 12 12 12 12 12 12 12 12 12 12 12 13 13 13 13 11 11 11 13 14 14 14 15 15
6 6 6 9 10 10 10 10 10 10 10 10 11 11 11 11 12 12 12 12 12 12 12 11 11 11 12 12 12 12 12 13 13 13 11 11 10 12 13 14 14 14 14
6 6 6 9 10 10 10 10 10 10 10 10 10 11 11 11 11 11 12 12 11 11 11 11 10 11 11 12 11 11 12 12 12 12 10 10 9 11 12 13 13 13 13
6 6 7 9 9 9 9 9 10 10 10 10 10 10 11 11 10 11 11 11 11 10 10 10 9 10 10 11 11 11 11 11 11 10 9 8 9 10 11 12 12 12 12
7 6 7 8 8 8 9 9 8 9 9 9 9 10 10 10 10 10 10 10 10 10 9 9 9 9 9 10 10 10 11 10 9 8 7 7 8 9 10 11 11 11 12
8 7 6 6 6 7 8 8 8 8 8 8 9 9 10 10 9 10 10 10 9 9 9 8 8 8 9 9 10 10 11 10 9 7 6 5 7 8 9 10 10 10 11
6 6 6 6 6 6 6 7 8 8 8 8 8 9 9 9 9 9 9 9 9 9 8 7 7 8 8 8 8 9 9 9 8 7 5 4 6 7 8 8 9 9 10
4 3 5 5 5 5 6 6 7 7 7 7 7 8 8 8 8 7 8 8 8 8 8 8 7 7 7 7 8 8 8 7 7 6 4 4 5 6 7 8 8 8 8
4 3 3 3 4 4 4 5 5 6 6 6 6 7 7 7 6 6 7 8 8 8 7 8 8 6 6 6 6 7 6 6 6 5 4 4 4 5 6 7 7 7 7
5 4 2 3 3 4 3 4 4 4 4 5 5 5 6 6 6 6 6 6 7 7 7 7 8 7 6 5 5 6 5 5 5 4 4 5 4 5 6 6 6 6 6
4 4 3 3 3 4 4 3 3 3 3 3 3 4 5 5 4 4 4 5 5 5 6 6 6 6 6 5 5 5 5 5 4 4 4 4 4 4 4 5 5 6 6
4 3 3 3 3 4 4 3 3 2 2 3 3 3 5 4 3 3 3 3 4 4 5 5 5 5 5 5 4 4 4 3 4 4 3 4 3 3 3 3 4 5 5
4 3 3 3 3 4 3 2 2 2 3 3 3 3 4 4 3 3 2 2 3 3 4 4 4 4 4 4 4 3 3 2 3 2 2 2 2 2 2 2 2 3 4
5 4 3 3 3 3 3 3 3 3 3 3 2 3 4 3 3 3 2 1 1 2 3 4 4 4 3 3 3 3 2 2 2 1 1 1 1 1 1 1 1 1 2
4 4 3 3 2 2 2 3 3 3 3 3 3 3 3 3 3 2 2 1 1 2 3 3 2 2 2 2 2 2 2 2 1 1 2 2 2 1 0 0 0 1 0
5 5 4 2 2 2 2 3 3 3 3 3 3 2 2 2 2 2 1 1 2 2 2 2 2 1 1 2 1 1 2 1 1 1 1 2 2 1 1 0 0 1 1
5 4 4 3 3 2 2 2 2 2 1 2 2 2 2 2 2 2 2 1 2 2 1 1 1 2 1 1 1 1 2 1 0 0 0 1 2 1 1 1 0 1 2
4 4 4 4 3 3 3 2 2 2 1 0 1 2 2 2 2 2 1 1 1 1 1 1 1 1 1 1 1 2 2 2 0 0 0 1 1 0 0 0 1 1 2
5 5 4 4 4 4 3 3 2 2 1 1 1 1 2 2 2 2 2 1 1 1 1 1 1 1 0 1 1 1 1 2 2 2 1 1 1 1 1 2 2 2 3
5 6 5 4 4 3 3 2 2 1 1 0 1 1 1 2 3 2 2 1 1 1 2 2 2 2 1 1 0 2 2 2 2 2 2 1 1 1 2 3 3 4 4
6 5 5 4 4 3 4 4 5 3 3 2 2 2 2 2 2 3 2 2 2 1 2 3 2 2 2 2 1 1 1 2 2 2 3 2 2 2 3 3 4 5 6
5 4 4 4 4 3 4 5 5 4 3 1 1 2 2 2 2 3 3 2 2 2 2 2 2 2 2 3 2 1 1 1 1 2 3 4 3 3 3 4 4 5 6
3 3 3 4 4 4 4 4 4 5 4 3 3 3 3 2 2 3 3 3 3 3 3 3 2 3 3 3 3 2 2 2 2 2 3 4 4 4 4 4 4 5 5
Wind_Direction
218 254 161 122 112 103 95 89 86 84 79 74 72 71 73 74 74 73 74 76 77 77 76 76 76 76 77 77 75 75 72 70 68 65 63 66 70 74 75 75 76 76 80
163 185 148 123 114 106 98 93 90 87 83 77 73 72 72 73 73 73 72 74 76 76 76 77 77 76 75 75 75 75 74 72 68 64 60 60 68 74 76 77 78 81 81
123 143 143 125 115 107 100 94 90 88 85 82 78 75 72 73 74 72 72 71 75 77 76 77 76 74 76 74 74 74 74 72 68 63 61 57 66 73 77 79 79 80 80
124 122 131 122 116 110 103 97 91 88 87 84 84 80 75 72 73 74 71 70 72 76 77 78 77 74 74 75 76 76 73 70 66 63 60 56 66 74 77 78 79 80 80
111 112 123 119 116 111 105 99 92 89 87 86 86 84 80 76 73 72 71 69 70 74 78 79 77 73 71 73 76 76 73 70 66 63 60 59 67 76 79 78 80 80 81
101 108 121 119 114 108 105 102 96 93 89 89 88 85 81 78 74 71 70 68 69 75 77 78 78 75 72 72 77 76 72 70 65 61 62 63 71 79 82 81 82 81 83
103 103 114 116 114 109 105 103 99 97 92 89 88 86 82 79 76 73 70 68 67 72 76 76 79 78 74 73 76 75 73 70 65 60 63 67 77 84 86 86 86 85 84
107 102 109 115 113 111 107 102 101 97 95 90 87 87 83 80 76 73 69 67 65 65 72 75 78 77 77 78 79 78 71 68 63 59 61 71 84 88 89 89 89 89 86
100 92 83 94 105 110 109 105 104 99 94 90 90 90 83 81 77 73 68 65 62 60 58 69 74 77 81 82 79 77 72 67 62 58 56 71 92 93 94 91 91 93 90
92 86 79 78 81 89 103 107 104 102 98 90 85 87 83 78 76 72 66 64 60 56 53 59 76 82 81 83 79 76 72 66 56 50 48 72 97 100 99 98 96 95 92
106 89 83 79 78 85 98 105 103 102 101 93 83 84 83 75 70 65 64 63 58 55 52 51 66 82 82 77 74 73 69 66 57 46 41 74 96 105 106 108 105 100 96
147 139 95 94 91 90 97 97 94 95 97 93 87 86 83 77 72 66 65 60 54 50 47 42 47 63 72 68 65 66 67 66 59 46 45 70 92 106 109 112 115 110 104
163 155 136 121 118 108 95 104 95 96 97 99 97 94 88 79 73 66 61 53 48 43 39 37 41 46 59 67 66 68 67 65 61 48 50 65 80 101 105 106 115 120 117
157 164 160 141 136 131 122 118 112 99 100 95 106 108 100 87 76 70 64 55 47 39 37 39 41 39 50 59 72 73 67 62 59 49 46 59 68 95 107 111 108 117 117
168 178 175 155 147 145 132 126 120 113 113 108 110 116 115 105 97 80 71 66 52 44 44 38 38 41 44 48 54 68 68 65 58 51 40 47 60 88 105 110 117 122 121
180 182 183 170 153 142 135 129 130 129 122 110 101 106 120 120 115 104 83 66 57 50 49 51 46 49 43 44 38 44 57 66 63 55 51 42 50 83 115 123 120 130 141
186 178 178 170 142 144 143 139 133 134 129 113 107 108 110 120 124 122 114 81 60 65 61 57 50 53 43 36 28 25 41 54 59 63 81 85 57 55 116 134 115 122 153
175 177 182 172 146 141 137 136 128 132 129 119 119 120 116 120 124 120 121 106 93 85 71 63 54 47 30 13 359 350 12 24 34 75 111 115 102 77 77 93 122 44 20
178 175 175 165 152 149 135 132 128 130 128 126 124 123 123 122 121 113 119 108 109 92 72 66 45 52 41 4 338 329 342 345 1 81 106 129 129 124 113 358 9 333 330
178 173 166 158 147 140 127 111 111 115 104 123 129 131 135 132 129 117 101 91 109 108 79 69 53 42 42 339 340 334 320 310 83 126 156 116 127 131 113 94 70 292 300
171 172 170 166 162 150 159 163 172 189 187 174 143 156 153 144 144 128 104 85 101 148 157 135 80 71 44 27 51 4 342 335 339 307 38 82 69 151 162 215 232 262 274
184 186 184 183 178 178 182 183 189 178 205 212 188 177 177 158 162 160 129 132 124 154 143 140 99 120 76 55 115 99 344 333 327 302 278 231 284 331 315 272 254 250 261
191 192 195 195 188 184 160 131 119 98 64 136 217 216 234 186 177 172 174 162 171 176 187 188 179 168 190 257 143 146 157 227 294 301 281 261 266 285 297 288 270 261 256
208 199 192 185 184 183 165 161 167 180 198 222 215 226 241 200 190 181 179 182 189 190 202 208 199 209 188 205 241 252 197 174 187 285 297 285 281 273 277 294 282 272 262
206 198 193 177 179 180 179 177 185 193 202 200 197 206 222 233 214 199 190 189 196 204 211 214 216 222 210 208 208 221 240 264 200 196 258 285 299 271 267 271 267 265 272
199 193 188 179 186 184 184 182 189 199 194 191 204 213 223 234 234 219 210 204 206 208 215 218 221 227 224 223 221 212 200 205 211 208 232 253 271 277 275 260 254 259 266
Height
1530 1531 1533 1534 1534 1535 1535 1536 1537 1537 1538 1538 1538 1538 1538 1538 1538 1539 1539 1539 1539 1539 1539 1539 1539 1539 1539 1539 1539 1539 1539 1539 1538 1538 1538 1538 1538 1538 1538 1538 1538 1538 1538
1529 1530 1532 1533 1534 1535 1535 1536 1536 1537 1538 1538 1538 1538 1539 1539 1539 1539 1539 1539 1539 1539 1539 1539 1540 1540 1540 1540 1540 1540 1540 1540 1540 1540 1539 1539 1540 1540 1540 1540 1540 1540 1540
1528 1530 1532 1533 1534 1535 1535 1536 1536 1537 1537 1538 1538 1539 1539 1539 1539 1539 1539 1539 1539 1539 1540 1540 1540 1540 1540 1540 1541 1541 1541 1541 1541 1541 1541 1541 1541 1541 1541 1541 1542 1542 1542
1528 1530 1531 1532 1533 1534 1535 1535 1536 1537 1537 1537 1538 1538 1539 1539 1539 1539 1540 1540 1540 1540 1540 1540 1540 1541 1541 1541 1541 1541 1541 1542 1542 1542 1542 1542 1542 1543 1543 1543 1543 1543 1543
1528 1529 1530 1532 1533 1534 1534 1535 1536 1536 1537 1537 1538 1538 1539 1539 1539 1539 1540 1540 1540 1540 1540 1540 1541 1541 1541 1542 1542 1542 1542 1543 1543 1543 1543 1543 1543 1544 1544 1544 1544 1545 1545
1527 1528 1530 1531 1532 1533 1534 1534 1535 1536 1536 1537 1537 1538 1538 1539 1539 1539 1540 1540 1540 1540 1540 1541 1541 1541 1542 1542 1542 1543 1543 1543 1544 1544 1544 1544 1544 1545 1545 1545 1545 1546 1546
1526 1528 1529 1531 1531 1532 1533 1534 1534 1535 1536 1536 1537 1537 1538 1538 1539 1539 1540 1540 1540 1540 1541 1541 1541 1541 1542 1542 1543 1543 1543 1544 1544 1544 1545 1545 1545 1546 1546 1546 1546 1546 1547
1526 1527 1529 1530 1531 1531 1532 1533 1534 1534 1535 1536 1536 1537 1537 1538 1538 1539 1539 1540 1540 1540 1540 1541 1541 1541 1542 1542 1543 1543 1544 1544 1544 1545 1545 1545 1546 1546 1546 1547 1547 1547 1547
1525 1527 1528 1529 1530 1531 1531 1532 1533 1533 1534 1535 1535 1536 1536 1537 1538 1538 1539 1539 1539 1540 1540 1540 1541 1541 1542 1542 1543 1543 1544 1544 1545 1545 1545 1546 1546 1546 1547 1547 1547 1547 1548
1524 1526 1527 1528 1529 1529 1530 1531 1531 1532 1533 1534 1534 1535 1535 1536 1537 1537 1538 1538 1539 1539 1539 1540 1540 1541 1541 1542 1542 1543 1543 1544 1544 1545 1545 1546 1546 1547 1547 1547 1547 1548 1548
1523 1524 1525 1526 1527 1528 1529 1530 1530 1531 1532 1533 1533 1534 1535 1535 1536 1536 1537 1537 1538 1538 1539 1539 1539 1540 1540 1541 1542 1542 1543 1543 1544 1544 1545 1545 1546 1546 1547 1547 1547 1547 1548
1520 1522 1523 1525 1526 1527 1528 1529 1529 1530 1531 1531 1532 1532 1533 1534 1534 1535 1535 1536 1536 1537 1537 1538 1538 1539 1539 1540 1541 1541 1542 1543 1543 1544 1544 1545 1545 1546 1546 1546 1547 1547 1547
1519 1520 1521 1523 1524 1525 1526 1527 1528 1529 1529 1530 1531 1531 1531 1532 1533 1533 1534 1534 1535 1535 1536 1536 1537 1537 1538 1539 1539 1540 1541 1541 1542 1543 1543 1544 1544 1545 1545 1545 1546 1546 1547
1517 1518 1519 1520 1522 1523 1524 1525 1526 1527 1527 1528 1529 1529 1530 1530 1531 1531 1532 1533 1533 1534 1534 1535 1535 1536 1537 1537 1538 1539 1539 1540 1541 1541 1542 1542 1543 1544 1544 1545 1545 1545 1546
1514 1515 1517 1518 1519 1521 1522 1522 1524 1525 1526 1526 1527 1528 1528 1529 1529 1530 1530 1531 1531 1532 1533 1533 1534 1534 1535 1536 1536 1537 1538 1539 1539 1540 1540 1541 1541 1542 1543 1543 1544 1544 1544
1511 1512 1514 1515 1517 1518 1519 1520 1521 1522 1524 1525 1525 1526 1526 1527 1527 1528 1528 1529 1529 1530 1531 1531 1532 1532 1533 1534 1535 1535 1536 1537 1537 1538 1539 1539 1540 1540 1541 1542 1542 1542 1543
1508 1510 1511 1513 1514 1515 1516 1518 1519 1520 1521 1522 1523 1523 1524 1525 1525 1526 1526 1527 1527 1528 1529 1529 1530 1530 1531 1532 1532 1533 1534 1534 1535 1536 1536 1537 1538 1538 1539 1540 1540 1541 1541
1506 1507 1509 1510 1511 1512 1514 1515 1516 1517 1519 1519 1520 1521 1522 1523 1523 1523 1524 1524 1525 1526 1526 1527 1527 1528 1529 1529 1530 1531 1531 1532 1533 1534 1534 1535 1535 1536 1537 1538 1538 1539 1539
1503 1504 1506 1507 1508 1510 1511 1512 1514 1515 1516 1517 1518 1518 1519 1520 1521 1521 1522 1522 1522 1523 1524 1524 1525 1525 1526 1527 1527 1528 1529 1530 1530 1531 1532 1533 1533 1534 1534 1535 1536 1536 1537
1500 1501 1503 1504 1505 1507 1508 1509 1510 1512 1513 1514 1515 1515 1516 1517 1518 1519 1519 1519 1520 1520 1521 1522 1522 1523 1524 1524 1525 1526 1526 1527 1528 1528 1529 1530 1531 1531 1532 1532 1533 1534 1534
1497 1498 1499 1500 1501 1503 1504 1505 1506 1507 1509 1510 1511 1512 1513 1514 1515 1516 1516 1517 1517 1517 1518 1519 1520 1520 1521 1522 1522 1522 1523 1524 1525 1526 1526 1527 1528 1528 1529 1529 1530 1531 1531
1494 1495 1496 1497 1498 1499 1500 1502 1503 1505 1506 1507 1508 1509 1510 1511 1512 1513 1513 1514 1514 1514 1515 1516 1517 1517 1518 1519 1520 1520 1520 1522 1521 1522 1523 1524 1525 1525 1526 1526 1527 1527 1528
1490 1491 1492 1493 1494 1496 1497 1499 1500 1501 1502 1503 1504 1505 1506 1508 1508 1509 1510 1511 1511 1512 1512 1513 1513 1514 1515 1516 1517 1518 1519 1518 1518 1519 1519 1520 1521 1522 1522 1523 1523 1524 1524
1487 1489 1489 1490 1491 1492 1494 1494 1495 1496 1496 1498 1500 1501 1503 1504 1505 1506 1506 1507 1508 1508 1509 1509 1510 1511 1512 1512 1514 1515 1516 1516 1517 1515 1516 1516 1517 1517 1518 1518 1519 1519 1520
1485 1486 1487 1487 1488 1489 1490 1491 1492 1492 1494 1495 1496 1498 1499 1500 1501 1502 1503 1503 1504 1505 1505 1506 1506 1507 1508 1509 1509 1510 1511 1512 1513 1513 1511 1512 1512 1513 1514 1514 1514 1515 1515
1483 1483 1484 1484 1485 1486 1486 1487 1488 1489 1490 1491 1492 1493 1494 1496 1497 1498 1499 1499 1500 1501 1502 1502 1503 1503 1504 1505 1505 1506 1507 1508 1508 1508 1508 1507 1507 1507 1509 1509 1510 1510 1511